THOR ABLESTAR R/B, 118

Orbit data source: Space-Track

THOR ABLESTAR R/B, 118 is space debris in LEO originally from a launch on Thu, 29 Jun 1961 UTC launched from the Air Force Eastern Test Range (AFETR). Debris objects in space refer to the collection of defunct objects orbiting the Earth. Examples of debris include non-operational satellites, rocket bodies, and fragments generated from explosions, collisions, or faulty payload assembly.

Loading next visibility...
Identifier
118, 1961-015C
Orbit
LEO
Country
Flag of USUS
Related business
Manufacturer
Aerojet
Mission
Spacecraft
Bus & Motor
ABLESTAR, Unknown motor
Mass
~600 kg wet, 600 kg dry
Launch date (UTC)
1961-06-29 (64 years ago)
Launch vehicle
Unknown
Launch site
Air Force Eastern Test Range (AFETR)
Object type
Payload
Rocket body
Debris
Shape & HBR
Cyl, 2.4 m
Radar Cross Section
6.048 m², Large (>1 m²)

Expand to show TLE details & history
Last TLE update: 11 hours ago

TLE from 11 hours ago
0 THOR ABLESTAR R/B
1 00118U 61015C   25259.62681645  .00000044  00000-0  77598-4 0  9992
2 00118  66.7659  22.8802 0075357 106.2453 254.6939 14.02602548277771
Epoch: 2025-09-16T15:02Z
TLE epoch observation values (Epoch: 2025-09-16T15:02:36.941Z)
Latitude
Longitude
161.41187°
Altitude
901.714 km
Speed
7.394 km/s
True Right ascension
01h 31m 31s
True Declination
0° 00' 00"
Sunlit
Object was in full shadow at epoch
Visualization orbit readout
Latitude
Unknown
Longitude
Unknown
Altitude
Unknown
Speed
Unknown
Apparent Right ascension
Unknown
Apparent Declination
Unknown
Sunlit
N/A
Visualization observer readout
Local Sidereal Time
18:41:14
Azimuth
Unknown
Elevation
Unknown
Doppler factor
Unknown
Orbital elements
Apogee altitude
937.904 km
Perigee altitude
828.466 km
Semi-major axis
7,261.322 km
Eccentricity
0.00754
Inclination
66.7659°
RAAN
22.8802°
Arg. of periapsis
106.2453°
True anomaly
253.8631°
Mean anomaly
254.6939°
Eccentric anomaly
254.27829°
Mean motion
3.50768 °/min
Orbital period
102.63 mins
BSTAR
0.000077598
Loading maneuver chart data...
Computing Atmospheric mass density...

Documentation

Showing up to 5 results
|